| time (UTC) | temp F | wind direction | speed MPH | gust MPH | rain 1hr in | rain 24hr in | rain mn in | humidity % | barometer mb |
| 20260502220818 | 50 | 0.0 | 0.0 | 0.00 | 0.15 | 0.15 | 65 | 989.7 | |
| 20260502215818 | 50 | 293 | 4.0 | 5.0 | 0.00 | 0.15 | 0.15 | 62 | 989.6 |
| 20260502214818 | 50 | 0.0 | 0.0 | 0.00 | 0.15 | 0.15 | 66 | 989.5 | |
| 20260502213818 | 49 | 0 | 3.0 | 7.0 | 0.00 | 0.15 | 0.15 | 66 | 989.5 |
| 20260502212818 | 49 | 315 | 1.0 | 3.0 | 0.00 | 0.15 | 0.15 | 68 | 989.6 |
| 20260502211818 | 49 | 0.0 | 1.0 | 0.00 | 0.15 | 0.15 | 75 | 989.6 | |
| 20260502210820 | 49 | 0.0 | 1.0 | 0.00 | 0.15 | 0.15 | 78 | 989.5 | |
| 20260502205820 | 49 | 0.0 | 0.0 | 0.00 | 0.15 | 0.15 | 83 | 989.6 | |
| 20260502204820 | 49 | 0.0 | 0.0 | 0.00 | 0.15 | 0.15 | 81 | 989.6 | |
| 20260502203820 | 49 | 0.0 | 0.0 | 0.00 | 0.15 | 0.15 | 84 | 989.5 | |
| 20260502202820 | 49 | 0.0 | 0.0 | 0.00 | 0.15 | 0.15 | 83 | 989.6 | |
| 20260502201820 | 49 | 0.0 | 0.0 | 0.00 | 0.15 | 0.15 | 85 | 989.6 | |
| 20260502200819 | 49 | 0.0 | 0.0 | 0.00 | 0.15 | 0.15 | 85 | 989.6 | |
| 20260502195820 | 49 | 0.0 | 0.0 | 0.00 | 0.15 | 0.15 | 84 | 989.7 | |
| 20260502194819 | 50 | 0.0 | 1.0 | 0.00 | 0.15 | 0.15 | 83 | 989.8 | |
| 20260502193819 | 50 | 0.0 | 0.0 | 0.00 | 0.15 | 0.15 | 82 | 989.9 | |
| 20260502192822 | 50 | 0.0 | 0.0 | 0.00 | 0.15 | 0.15 | 83 | 989.9 | |
| 20260502191819 | 49 | 0.0 | 0.0 | 0.00 | 0.15 | 0.15 | 78 | 989.9 | |
| 20260502190820 | 50 | 0.0 | 1.0 | 0.00 | 0.15 | 0.15 | 80 | 989.9 | |
| 20260502185821 | 50 | 23 | 1.0 | 2.0 | 0.00 | 0.15 | 0.15 | 78 | 989.9 |
| 20260502184820 | 50 | 293 | 1.0 | 2.0 | 0.00 | 0.15 | 0.15 | 79 | 990.0 |
| 20260502183819 | 50 | 293 | 1.0 | 3.0 | 0.00 | 0.15 | 0.15 | 78 | 990.0 |
| 20260502182821 | 50 | 315 | 3.0 | 6.0 | 0.00 | 0.15 | 0.15 | 79 | 990.1 |
| 20260502181819 | 50 | 338 | 2.0 | 3.0 | 0.00 | 0.15 | 0.15 | 80 | 990.2 |
| 20260502180820 | 51 | 338 | 1.0 | 3.0 | 0.00 | 0.15 | 0.15 | 74 | 990.1 |
| 20260502163819 | 46 | 0.0 | 1.0 | 0.00 | 0.14 | 0.14 | 89 | 990.7 | |
| 20260502162819 | 46 | 315 | 1.0 | 3.0 | 0.00 | 0.14 | 0.14 | 88 | 990.7 |
| 20260502161819 | 47 | 338 | 3.0 | 5.0 | 0.00 | 0.14 | 0.14 | 85 | 990.7 |
| 20260502160820 | 49 | 270 | 8.0 | 13.0 | 0.00 | 0.14 | 0.14 | 84 | 990.9 |
| 20260502151821 | 47 | 225 | 3.0 | 5.0 | 0.00 | 0.14 | 0.14 | 92 | 991.0 |
| 20260502150819 | 46 | 203 | 2.0 | 4.0 | 0.00 | 0.14 | 0.14 | 92 | 991.0 |
| 20260502122819 | 43 | 0.0 | 0.0 | 0.00 | 0.14 | 0.14 | 95 | 991.6 | |
| 20260502121819 | 43 | 0.0 | 0.0 | 0.00 | 0.14 | 0.14 | 95 | 991.6 | |
| 20260502120819 | 43 | 0.0 | 0.0 | 0.00 | 0.14 | 0.14 | 95 | 991.6 | |
| 20260502115819 | 42 | 0.0 | 0.0 | 0.00 | 0.14 | 0.14 | 95 | 991.6 | |
| 20260502114819 | 42 | 0.0 | 0.0 | 0.00 | 0.14 | 0.14 | 94 | 991.6 | |
| 20260502113819 | 42 | 0.0 | 0.0 | 0.00 | 0.14 | 0.14 | 94 | 991.7 | |
| 20260502112819 | 42 | 0.0 | 0.0 | 0.00 | 0.14 | 0.14 | 94 | 991.7 | |
| 20260502111821 | 42 | 0.0 | 0.0 | 0.00 | 0.14 | 0.14 | 94 | 991.8 | |
| 20260502110819 | 42 | 0.0 | 0.0 | 0.00 | 0.14 | 0.14 | 94 | 991.8 | |
| 20260502105819 | 42 | 0.0 | 0.0 | 0.00 | 0.14 | 0.14 | 94 | 991.7 | |
| 20260502104819 | 42 | 0.0 | 0.0 | 0.00 | 0.14 | 0.14 | 94 | 991.4 | |
| 20260502103819 | 41 | 0.0 | 0.0 | 0.00 | 0.14 | 0.14 | 94 | 991.3 | |
| 20260502102819 | 41 | 0.0 | 0.0 | 0.00 | 0.14 | 0.14 | 94 | 991.2 | |
| 20260502101819 | 41 | 0.0 | 0.0 | 0.00 | 0.14 | 0.14 | 94 | 991.1 | |
| 20260502100819 | 41 | 0.0 | 0.0 | 0.00 | 0.14 | 0.14 | 94 | 991.1 | |
| 20260502090818 | 41 | 0.0 | 0.0 | 0.05 | 0.14 | 0.14 | 93 | 991.4 | |
| 20260502070821 | 41 | 0.0 | 1.0 | 0.01 | 0.09 | 0.08 | 91 | 991.7 | |
| 20260502065818 | 41 | 0.0 | 0.0 | 0.02 | 0.09 | 0.08 | 91 | 991.9 | |
| 20260502064818 | 41 | 0.0 | 1.0 | 0.05 | 0.09 | 0.08 | 91 | 991.8 | |
| 20260502063819 | 41 | 0.0 | 0.0 | 0.06 | 0.09 | 0.08 | 90 | 991.7 | |
| 20260502062819 | 41 | 68 | 1.0 | 2.0 | 0.07 | 0.09 | 0.08 | 90 | 992.1 |
| 20260502061818 | 42 | 0.0 | 0.0 | 0.08 | 0.09 | 0.08 | 90 | 992.2 | |
| 20260502060818 | 42 | 0.0 | 0.0 | 0.07 | 0.08 | 0.07 | 89 | 992.6 | |
| 20260502055818 | 42 | 0.0 | 0.0 | 0.06 | 0.07 | 0.06 | 88 | 992.8 | |
| 20260502054818 | 42 | 0.0 | 0.0 | 0.03 | 0.04 | 0.03 | 87 | 992.6 | |
| 20260502053818 | 43 | 45 | 1.0 | 2.0 | 0.02 | 0.03 | 0.02 | 85 | 992.6 |
| 20260502052818 | 43 | 0.0 | 1.0 | 0.01 | 0.02 | 0.01 | 82 | 992.3 | |
| 20260502051818 | 44 | 0.0 | 1.0 | 0.00 | 0.01 | 0.00 | 77 | 992.3 | |
| 20260502050818 | 44 | 0.0 | 0.0 | 0.00 | 0.01 | 0.00 | 76 | 992.1 | |
| 20260502045818 | 45 | 0.0 | 0.0 | 0.00 | 0.01 | 0.00 | 73 | 992.2 | |
| 20260502044820 | 46 | 0.0 | 0.0 | 0.00 | 0.01 | 0.00 | 68 | 992.0 | |
| 20260502043818 | 46 | 0.0 | 1.0 | 0.00 | 0.01 | 0.00 | 66 | 991.8 | |
| 20260502042820 | 47 | 0.0 | 0.0 | 0.00 | 0.01 | 0.00 | 63 | 991.9 | |
| 20260502041820 | 47 | 0.0 | 0.0 | 0.00 | 0.01 | 0.00 | 61 | 991.7 | |
| 20260502040818 | 47 | 0.0 | 0.0 | 0.00 | 0.01 | 0.00 | 64 | 991.8 | |
| 20260502035818 | 47 | 0.0 | 0.0 | 0.00 | 0.01 | 0.01 | 59 | 991.5 | |
| 20260502034818 | 47 | 0.0 | 0.0 | 0.00 | 0.01 | 0.01 | 55 | 991.5 | |
| 20260502033818 | 48 | 0.0 | 0.0 | 0.00 | 0.01 | 0.01 | 55 | 991.4 | |
| 20260502032818 | 48 | 0.0 | 0.0 | 0.00 | 0.01 | 0.01 | 55 | 991.3 | |
| 20260502031818 | 48 | 0.0 | 0.0 | 0.00 | 0.01 | 0.01 | 54 | 991.4 | |
| 20260502030818 | 48 | 0.0 | 1.0 | 0.00 | 0.02 | 0.01 | 55 | 991.5 | |
| 20260502025818 | 47 | 0.0 | 0.0 | 0.00 | 0.02 | 0.01 | 51 | 991.3 | |
| 20260502024818 | 48 | 0.0 | 0.0 | 0.00 | 0.02 | 0.01 | 52 | 991.4 | |
| 20260502023818 | 48 | 0.0 | 1.0 | 0.00 | 0.02 | 0.01 | 51 | 991.5 | |
| 20260502022818 | 48 | 0.0 | 0.0 | 0.00 | 0.02 | 0.01 | 49 | 991.4 | |
| 20260502021818 | 48 | 0.0 | 0.0 | 0.00 | 0.02 | 0.01 | 49 | 991.3 | |
| 20260502020820 | 48 | 0.0 | 0.0 | 0.00 | 0.03 | 0.01 | 48 | 991.3 | |
| 20260502015818 | 49 | 0.0 | 0.0 | 0.00 | 0.05 | 0.01 | 48 | 991.4 | |
| 20260502014818 | 48 | 0.0 | 0.0 | 0.00 | 0.07 | 0.01 | 48 | 991.4 | |
| 20260502013818 | 48 | 0.0 | 0.0 | 0.00 | 0.09 | 0.01 | 49 | 991.5 | |
| 20260502012818 | 49 | 315 | 3.0 | 4.0 | 0.00 | 0.11 | 0.01 | 50 | 991.4 |
| 20260502011820 | 49 | 0.0 | 0.0 | 0.00 | 0.11 | 0.01 | 47 | 991.4 | |
| 20260502010818 | 50 | 0.0 | 0.0 | 0.00 | 0.12 | 0.01 | 46 | 991.2 | |
| 20260502005818 | 50 | 0.0 | 0.0 | 0.00 | 0.12 | 0.01 | 46 | 991.1 | |
| 20260502004818 | 50 | 0.0 | 0.0 | 0.00 | 0.12 | 0.01 | 45 | 991.0 | |
| 20260502003818 | 50 | 0.0 | 0.0 | 0.00 | 0.12 | 0.01 | 45 | 990.9 | |
| 20260502002818 | 51 | 0.0 | 0.0 | 0.00 | 0.13 | 0.01 | 46 | 990.8 | |
| 20260502001949 | 51 | 0.0 | 0.0 | 0.00 | 0.13 | 0.01 | 45 | 990.8 | |
| 20260502001318 | 51 | 0.0 | 0.0 | 0.00 | 0.14 | 0.01 | 42 | 990.5 | |
| 20260502000318 | 51 | 0.0 | 0.0 | 0.00 | 0.14 | 0.01 | 43 | 990.5 | |
| 20260501235318 | 52 | 0.0 | 0.0 | 0.00 | 0.14 | 0.01 | 43 | 990.4 | |
| 20260501234318 | 53 | 0.0 | 0.0 | 0.00 | 0.14 | 0.01 | 42 | 990.3 | |
| 20260501233318 | 54 | 0.0 | 0.0 | 0.00 | 0.14 | 0.01 | 40 | 990.2 | |
| 20260501232318 | 55 | 0.0 | 0.0 | 0.00 | 0.14 | 0.01 | 38 | 990.1 | |
| 20260501231318 | 55 | 0.0 | 0.0 | 0.00 | 0.14 | 0.01 | 39 | 989.8 | |
| 20260501230318 | 55 | 0.0 | 2.0 | 0.00 | 0.14 | 0.01 | 40 | 989.8 | |
| 20260501225318 | 56 | 0.0 | 0.0 | 0.00 | 0.14 | 0.01 | 38 | 989.8 | |
| 20260501224318 | 56 | 315 | 1.0 | 3.0 | 0.00 | 0.14 | 0.01 | 36 | 989.8 |
| 20260501223318 | 57 | 315 | 1.0 | 5.0 | 0.00 | 0.14 | 0.01 | 38 | 989.8 |
| 20260501222320 | 57 | 293 | 1.0 | 2.0 | 0.00 | 0.14 | 0.01 | 36 | 989.7 |
| 20260501221318 | 57 | 0.0 | 2.0 | 0.00 | 0.14 | 0.01 | 37 | 989.8 |